Tracking 19562 objects as of 22-Mar-2019
HD Live streaming from Space Station
objects crossing your sky now

COSMOS 2038

Track COSMOS 2038 now!
10-day predictions
COSMOS 2038 is classified as:


NORAD ID: 20232
Int'l Code: 1989-074A
Perigee: 1,399.5 km
Apogee: 1,416.6 km
Inclination: 82.6 °
Period: 113.8 minutes
Semi major axis: 7779 km
RCS: 1.1763 m2 (large)
Launch date: September 14, 1989
Source: Commonwealth of Independent States (former USSR) (CIS)
Launch site: PLESETSK MISSILE AND SPACE COMPLEX (PKMTR)
aabbcc
Your satellite tracking list
Your tracking list is empty




NASA's NSSDC Master Catalog

Two Line Element Set (TLE):
1 20232U 89074A   19079.53366955  .00000026  00000-0  84992-4 0  9999
2 20232  82.5696  88.1391 0010970 331.4023 188.3016 12.65359491337139
Source of the keplerian elements: AFSPC